Deadman Valley, Northwest Territories

12:10 AM MST on December 08, 2016 (GMT -0700)
Deadman Valley

Weather History for CXDK - December, 2012

Change the Weather History Date:

Tuesday, December 25, 2012

  Actual Average Record
Temperature  
Mean Temperature -20 °F -  
Max Temperature -12 °F - - ()
Min Temperature -27 °F - - ()
Degree Days  
Heating Degree Days 84    
Moisture  
Dew Point -25 °F    
Average Humidity 73    
Maximum Humidity 78    
Minimum Humidity 53    
Precipitation  
Precipitation 0.00 in - - ()
Sea Level Pressure  
Sea Level Pressure 30.45 in    
Wind  
Wind Speed 11 mph ()    
Max Wind Speed 38 mph    
Max Gust Speed -    
T = Trace of Precipitation, MM = Missing Value Source: Averaged Metar Reports

Daily Weather History Graph

Daily Weather History Graph

Search for Another Location

Airport or City:

Trip Planner

Search our weather history database for the weather conditions in past years. The results will help you decide how hot, cold, wet, or windy it might be!

Date:

Astronomy

Dec. 25, 2012 Rise Set
Actual Time 10:34 AM MST 4:02 PM MST
Civil Twilight 9:31 AM MST 5:04 PM MST
Nautical Twilight 8:32 AM MST 6:04 PM MST
Astronomical Twilight 7:38 AM MST 6:58 PM MST
Moon 2:29 PM MST (12/25) 7:55 AM MST (12/25)
Length of Visible Light 7h 32m
Length of Day
5h 28m
Waxing Gibbous, 94% of the Moon is Illuminated
Dec 25
Waxing Gibbous
Dec 28
Full
Jan 4
Last Quarter
Jan 11
New
Jan 18
First Quarter

Hourly Weather History & Observations

Time (MST) Temp. Windchill Dew Point Humidity Pressure Visibility Wind Dir Wind Speed Gust Speed Precip Events Conditions
12:00 AM -19.1 °F -36.0 °F -25.1 °F 74% 30.62 in - North 6.9 mph - N/A   Unknown
1:00 AM -16.6 °F -32.9 °F -21.8 °F 77% 30.60 in - North 6.9 mph - N/A   Unknown
2:00 AM -17.9 °F -35.9 °F -23.8 °F 74% 30.60 in - North 8.1 mph - N/A   Unknown
3:00 AM -20.2 °F -40.1 °F -25.6 °F 76% 30.58 in - North 9.2 mph - N/A   Unknown
4:00 AM -18.4 °F -42.9 °F -23.8 °F 76% 30.58 in - North 15.0 mph - N/A   Unknown
5:00 AM -18 °F - -23 °F 64% 30.55 in - Calm Calm - -  
5:00 AM -17.9 °F -50.1 °F -23.3 °F 76% 30.55 in - North 29.9 mph - N/A   Unknown
6:00 AM -17.1 °F -33.6 °F -22.7 °F 76% 30.54 in - North 6.9 mph - N/A   Unknown
7:00 AM -21.3 °F -34.7 °F -26.9 °F 75% 30.52 in - North 4.6 mph - N/A   Unknown
8:00 AM -22.4 °F -59.2 °F -28.1 °F 75% 30.50 in - North 38.0 mph - N/A   Unknown
9:00 AM -23.4 °F -47.5 °F -29.4 °F 74% 30.49 in - North 12.7 mph - N/A   Unknown
11:00 AM -19 °F - -24 °F 67% 30.47 in - Calm Calm - -  
11:00 AM -18.8 °F -31.8 °F -23.8 °F 78% 30.47 in - North 4.6 mph - N/A   Unknown
12:00 PM -17.7 °F -34.2 °F -23.3 °F 76% 30.44 in - North 6.9 mph - N/A   Unknown
1:00 PM -15.0 °F -47.0 °F -20.6 °F 76% 30.42 in - North 32.2 mph - N/A   Unknown
2:00 PM -14.8 °F -30.8 °F -20.0 °F 77% 30.40 in - North 6.9 mph - N/A   Unknown
3:00 PM -13.5 °F -29.3 °F -18.8 °F 77% 30.39 in - North 6.9 mph - N/A   Unknown
4:00 PM -12.5 °F -26.3 °F -18.0 °F 76% 30.38 in - North 5.8 mph - N/A   Unknown
5:00 PM -19 °F - -25 °F 63% 30.37 in - Calm Calm - -  
5:00 PM -18.9 °F -32.0 °F -24.5 °F 76% 30.37 in - North 4.6 mph - N/A   Unknown
6:00 PM -20.4 °F -41.5 °F -25.4 °F 78% 30.36 in - North 10.4 mph - N/A   Unknown
7:00 PM -20.4 °F -54.8 °F -26.1 °F 75% 30.35 in - North 33.4 mph - N/A   Unknown
8:00 PM -24.0 °F -47.2 °F -29.7 °F 74% 30.34 in - North 11.5 mph - N/A   Unknown
9:00 PM -23.8 °F -51.5 °F -29.9 °F 73% 30.34 in - North 17.3 mph - N/A   Unknown
10:00 PM -24.0 °F -56.8 °F -30.8 °F 70% 30.33 in - North 26.5 mph - N/A   Unknown
11:00 PM -27 °F - -34 °F 53% 30.32 in - Calm Calm - -  
11:00 PM -27.4 °F -45.9 °F -34.1 °F 71% 30.32 in - North 6.9 mph - N/A   Unknown